Year,Month,Day,Hour,Minute,Value (Times are PST for temperature in C)
2016,08,27,00,00,19.90
2016,08,27,00,01,19.90
2016,08,27,00,02,19.90
2016,08,27,00,03,19.90
2016,08,27,00,04,19.80
2016,08,27,00,05,19.80
2016,08,27,00,06,19.80
2016,08,27,00,07,19.70
2016,08,27,00,08,19.70
2016,08,27,00,09,19.70
2016,08,27,00,10,19.70
2016,08,27,00,11,19.70
2016,08,27,00,12,19.60
2016,08,27,00,13,19.60
2016,08,27,00,14,19.60
2016,08,27,00,15,19.60
2016,08,27,00,16,19.50
2016,08,27,00,17,19.50
2016,08,27,00,18,19.50
2016,08,27,00,19,19.40
2016,08,27,00,20,19.40
2016,08,27,00,21,19.40
2016,08,27,00,22,19.40
2016,08,27,00,23,19.30
2016,08,27,00,24,19.30
2016,08,27,00,25,19.30
2016,08,27,00,26,19.30
2016,08,27,00,27,19.30
2016,08,27,00,28,19.20
2016,08,27,00,29,19.20
2016,08,27,00,30,19.20
2016,08,27,00,31,19.20
2016,08,27,00,32,19.20
2016,08,27,00,33,19.20
2016,08,27,00,34,19.20
2016,08,27,00,35,19.20
2016,08,27,00,36,19.20
2016,08,27,00,37,19.20
2016,08,27,00,38,19.20
2016,08,27,00,39,19.20
2016,08,27,00,40,19.20
2016,08,27,00,41,19.10
2016,08,27,00,42,19.10
2016,08,27,00,43,19.10
2016,08,27,00,44,19.00
2016,08,27,00,45,18.90
2016,08,27,00,46,18.90
2016,08,27,00,47,18.90
2016,08,27,00,48,18.90
2016,08,27,00,49,18.80
2016,08,27,00,50,18.80
2016,08,27,00,51,18.80
2016,08,27,00,52,18.80
2016,08,27,00,53,18.80
2016,08,27,00,54,18.70
2016,08,27,00,55,18.70
2016,08,27,00,56,18.70
2016,08,27,00,57,18.60
2016,08,27,00,58,18.60
2016,08,27,00,59,18.60
2016,08,27,01,00,18.60
2016,08,27,01,01,18.60
2016,08,27,01,02,18.60
2016,08,27,01,03,18.60
2016,08,27,01,04,18.60
2016,08,27,01,05,18.50
2016,08,27,01,06,18.40
2016,08,27,01,07,18.40
2016,08,27,01,08,18.40
2016,08,27,01,09,18.30
2016,08,27,01,10,18.30
2016,08,27,01,11,18.30
2016,08,27,01,12,18.30
2016,08,27,01,13,18.30
2016,08,27,01,14,18.30
2016,08,27,01,15,18.30
2016,08,27,01,16,18.30
2016,08,27,01,17,18.20
2016,08,27,01,18,18.20
2016,08,27,01,19,18.20
2016,08,27,01,20,18.20
2016,08,27,01,21,18.10
2016,08,27,01,22,18.10
2016,08,27,01,23,18.10
2016,08,27,01,24,18.10
2016,08,27,01,25,18.10
2016,08,27,01,26,18.10
2016,08,27,01,27,18.10
2016,08,27,01,28,18.10
2016,08,27,01,29,18.10
2016,08,27,01,30,18.10
2016,08,27,01,31,18.00
2016,08,27,01,32,17.90
2016,08,27,01,33,17.90
2016,08,27,01,34,17.90
2016,08,27,01,35,17.90
2016,08,27,01,36,17.90
2016,08,27,01,37,17.90
2016,08,27,01,38,17.90
2016,08,27,01,39,17.90
2016,08,27,01,40,17.90
2016,08,27,01,41,17.90
2016,08,27,01,42,17.80
2016,08,27,01,43,17.80
2016,08,27,01,44,17.80
2016,08,27,01,45,17.80
2016,08,27,01,46,17.80
2016,08,27,01,47,17.80
2016,08,27,01,48,17.70
2016,08,27,01,49,17.70
2016,08,27,01,50,17.70
2016,08,27,01,51,17.70
2016,08,27,01,52,17.70
2016,08,27,01,53,17.70
2016,08,27,01,54,17.70
2016,08,27,01,55,17.70
2016,08,27,01,56,17.70
2016,08,27,01,57,17.70
2016,08,27,01,58,17.60
2016,08,27,01,59,17.60
2016,08,27,02,00,17.60
2016,08,27,02,01,17.60
2016,08,27,02,02,17.60
2016,08,27,02,03,17.60
2016,08,27,02,04,17.50
2016,08,27,02,05,17.50
2016,08,27,02,06,17.40
2016,08,27,02,07,17.40
2016,08,27,02,08,17.40
2016,08,27,02,09,17.40
2016,08,27,02,10,17.40
2016,08,27,02,11,17.40
2016,08,27,02,12,17.40
2016,08,27,02,13,17.40
2016,08,27,02,14,17.30
2016,08,27,02,15,17.30
2016,08,27,02,16,17.30
2016,08,27,02,17,17.30
2016,08,27,02,18,17.30
2016,08,27,02,19,17.30
2016,08,27,02,20,17.30
2016,08,27,02,21,17.30
2016,08,27,02,22,17.30
2016,08,27,02,23,17.30
2016,08,27,02,24,17.30
2016,08,27,02,25,17.30
2016,08,27,02,26,17.30
2016,08,27,02,27,17.30
2016,08,27,02,28,17.30
2016,08,27,02,29,17.30
2016,08,27,02,30,17.30
2016,08,27,02,31,17.30
2016,08,27,02,32,17.30
2016,08,27,02,33,17.30
2016,08,27,02,34,17.30
2016,08,27,02,35,17.20
2016,08,27,02,36,17.20
2016,08,27,02,37,17.20
2016,08,27,02,38,17.20
2016,08,27,02,39,17.20
2016,08,27,02,40,17.20
2016,08,27,02,41,17.20
2016,08,27,02,42,17.20
2016,08,27,02,43,17.20
2016,08,27,02,44,17.20
2016,08,27,02,45,17.20
2016,08,27,02,46,17.20
2016,08,27,02,47,17.20
2016,08,27,02,48,17.20
2016,08,27,02,49,17.20
2016,08,27,02,50,17.20
2016,08,27,02,51,17.10
2016,08,27,02,52,17.10
2016,08,27,02,53,17.10
2016,08,27,02,54,17.10
2016,08,27,02,55,17.10
2016,08,27,02,56,17.10
2016,08,27,02,57,17.10
2016,08,27,02,58,17.10
2016,08,27,02,59,17.00
2016,08,27,03,00,17.00
2016,08,27,03,01,17.00
2016,08,27,03,02,17.00
2016,08,27,03,03,16.90
2016,08,27,03,04,16.90
2016,08,27,03,05,16.90
2016,08,27,03,06,16.90
2016,08,27,03,07,16.90
2016,08,27,03,08,16.90
2016,08,27,03,09,16.90
2016,08,27,03,10,16.90
2016,08,27,03,11,16.90
2016,08,27,03,12,16.90
2016,08,27,03,13,16.90
2016,08,27,03,14,16.90
2016,08,27,03,15,16.90
2016,08,27,03,16,16.90
2016,08,27,03,17,16.90
2016,08,27,03,18,16.90
2016,08,27,03,19,16.90
2016,08,27,03,20,16.90
2016,08,27,03,21,17.00
2016,08,27,03,22,17.00
2016,08,27,03,23,17.00
2016,08,27,03,24,17.00
2016,08,27,03,25,17.00
2016,08,27,03,26,17.00
2016,08,27,03,27,17.00
2016,08,27,03,28,17.00
2016,08,27,03,29,17.00
2016,08,27,03,30,17.00
2016,08,27,03,31,17.00
2016,08,27,03,32,17.10
2016,08,27,03,33,17.10
2016,08,27,03,34,17.10
2016,08,27,03,35,17.10
2016,08,27,03,36,17.10
2016,08,27,03,37,17.10
2016,08,27,03,38,17.10
2016,08,27,03,39,17.10
2016,08,27,03,40,17.10
2016,08,27,03,41,17.00
2016,08,27,03,42,17.00
2016,08,27,03,43,17.00
2016,08,27,03,44,17.00
2016,08,27,03,45,17.00
2016,08,27,03,46,16.90
2016,08,27,03,47,16.90
2016,08,27,03,48,16.90
2016,08,27,03,49,16.90
2016,08,27,03,50,16.80
2016,08,27,03,51,16.80
2016,08,27,03,52,16.80
2016,08,27,03,53,16.80
2016,08,27,03,54,16.80
2016,08,27,03,55,16.80
2016,08,27,03,56,16.80
2016,08,27,03,57,16.80
2016,08,27,03,58,16.80
2016,08,27,03,59,16.80
2016,08,27,04,00,16.80
2016,08,27,04,01,16.70
2016,08,27,04,02,16.70
2016,08,27,04,03,16.70
2016,08,27,04,04,16.70
2016,08,27,04,05,16.70
2016,08,27,04,06,16.70
2016,08,27,04,07,16.70
2016,08,27,04,08,16.70
2016,08,27,04,09,16.60
2016,08,27,04,10,16.60
2016,08,27,04,11,16.60
2016,08,27,04,12,16.60
2016,08,27,04,13,16.60
2016,08,27,04,14,16.50
2016,08,27,04,15,16.50
2016,08,27,04,16,16.50
2016,08,27,04,17,16.50
2016,08,27,04,18,16.50
2016,08,27,04,19,16.50
2016,08,27,04,20,16.50
2016,08,27,04,21,16.50
2016,08,27,04,22,16.50
2016,08,27,04,23,16.50
2016,08,27,04,24,16.50
2016,08,27,04,25,16.50
2016,08,27,04,26,16.50
2016,08,27,04,27,16.60
2016,08,27,04,28,16.60
2016,08,27,04,29,16.60
2016,08,27,04,30,16.60
2016,08,27,04,31,16.60
2016,08,27,04,32,16.60
2016,08,27,04,33,16.60
2016,08,27,04,34,16.50
2016,08,27,04,35,16.60
2016,08,27,04,36,16.50
2016,08,27,04,37,16.60
2016,08,27,04,38,16.60
2016,08,27,04,39,16.60
2016,08,27,04,40,16.60
2016,08,27,04,41,16.60
2016,08,27,04,42,16.60
2016,08,27,04,43,16.60
2016,08,27,04,44,16.60
2016,08,27,04,45,16.60
2016,08,27,04,46,16.60
2016,08,27,04,47,16.60
2016,08,27,04,48,16.60
2016,08,27,04,49,16.60
2016,08,27,04,50,16.60
2016,08,27,04,51,16.60
2016,08,27,04,52,16.60
2016,08,27,04,53,16.60
2016,08,27,04,54,16.60
2016,08,27,04,55,16.60
2016,08,27,04,56,16.60
2016,08,27,04,57,16.60
2016,08,27,04,58,16.60
2016,08,27,04,59,16.60
2016,08,27,05,00,16.60
2016,08,27,05,01,16.60
2016,08,27,05,02,16.50
2016,08,27,05,03,16.50
2016,08,27,05,04,16.40
2016,08,27,05,05,16.40
2016,08,27,05,06,16.40
2016,08,27,05,07,16.40
2016,08,27,05,08,16.30
2016,08,27,05,09,16.30
2016,08,27,05,10,16.30
2016,08,27,05,11,16.30
2016,08,27,05,12,16.20
2016,08,27,05,13,16.20
2016,08,27,05,14,16.20
2016,08,27,05,15,16.20
2016,08,27,05,16,16.20
2016,08,27,05,17,16.10
2016,08,27,05,18,16.10
2016,08,27,05,19,16.10
2016,08,27,05,20,16.10
2016,08,27,05,21,16.00
2016,08,27,05,22,16.00
2016,08,27,05,23,16.00
2016,08,27,05,24,15.90
2016,08,27,05,25,15.90
2016,08,27,05,26,15.90
2016,08,27,05,27,15.90
2016,08,27,05,28,15.80
2016,08,27,05,29,15.80
2016,08,27,05,30,15.80
2016,08,27,05,31,15.80
2016,08,27,05,32,15.80
2016,08,27,05,33,15.70
2016,08,27,05,34,15.70
2016,08,27,05,35,15.70
2016,08,27,05,36,15.70
2016,08,27,05,37,15.70
2016,08,27,05,38,15.60
2016,08,27,05,39,15.60
2016,08,27,05,40,15.60
2016,08,27,05,41,15.60
2016,08,27,05,42,15.60
2016,08,27,05,43,15.60
2016,08,27,05,44,15.60
2016,08,27,05,45,15.60
2016,08,27,05,46,15.60
2016,08,27,05,47,15.60
2016,08,27,05,48,15.60
2016,08,27,05,49,15.60
2016,08,27,05,50,15.60
2016,08,27,05,51,15.60
2016,08,27,05,52,15.50
2016,08,27,05,53,15.50
2016,08,27,05,54,15.50
2016,08,27,05,55,15.50
2016,08,27,05,56,15.50
2016,08,27,05,57,15.50
2016,08,27,05,58,15.50
2016,08,27,05,59,15.40
2016,08,27,06,00,15.50
2016,08,27,06,01,15.50
2016,08,27,06,02,15.50
2016,08,27,06,03,15.50
2016,08,27,06,04,15.60
2016,08,27,06,05,15.60
2016,08,27,06,06,15.60
2016,08,27,06,07,15.60
2016,08,27,06,08,15.60
2016,08,27,06,09,15.60
2016,08,27,06,10,15.60
2016,08,27,06,11,15.60
2016,08,27,06,12,15.60
2016,08,27,06,13,15.60
2016,08,27,06,14,15.60
2016,08,27,06,15,15.60
2016,08,27,06,16,15.50
2016,08,27,06,17,15.50
2016,08,27,06,18,15.50
2016,08,27,06,19,15.40
2016,08,27,06,20,15.40
2016,08,27,06,21,15.40
2016,08,27,06,22,15.40
2016,08,27,06,23,15.40
2016,08,27,06,24,15.30
2016,08,27,06,25,15.30
2016,08,27,06,26,15.30
2016,08,27,06,27,15.30
2016,08,27,06,28,15.30
2016,08,27,06,29,15.30
2016,08,27,06,30,15.30
2016,08,27,06,31,15.30
2016,08,27,06,32,15.30
2016,08,27,06,33,15.30
2016,08,27,06,34,15.30
2016,08,27,06,35,15.30
2016,08,27,06,36,15.30
2016,08,27,06,37,15.30
2016,08,27,06,38,15.30
2016,08,27,06,54,14.90
2016,08,27,06,55,14.90
2016,08,27,06,56,14.90
2016,08,27,06,57,14.90
2016,08,27,06,58,14.90
2016,08,27,06,59,14.90
2016,08,27,07,00,14.90
2016,08,27,07,01,14.90
2016,08,27,07,02,14.90
2016,08,27,07,03,15.00
2016,08,27,07,04,15.00
2016,08,27,07,05,15.00
2016,08,27,07,06,15.00
2016,08,27,07,07,15.00
2016,08,27,07,08,15.00
2016,08,27,07,09,15.00
2016,08,27,07,10,15.00
2016,08,27,07,11,15.00
2016,08,27,07,12,15.00
2016,08,27,07,13,15.00
2016,08,27,07,14,15.00
2016,08,27,07,15,15.00
2016,08,27,07,16,15.10
2016,08,27,07,17,15.10
2016,08,27,07,18,15.10
2016,08,27,07,19,15.10
2016,08,27,07,20,15.10
2016,08,27,07,21,15.10
2016,08,27,07,22,15.10
2016,08,27,07,23,15.10
2016,08,27,07,24,15.10
2016,08,27,07,25,15.10
2016,08,27,07,26,15.10
2016,08,27,07,27,15.10
2016,08,27,07,28,15.10
2016,08,27,07,29,15.10
2016,08,27,07,30,15.10
2016,08,27,07,31,15.10
2016,08,27,07,32,15.10
2016,08,27,07,33,15.10
2016,08,27,07,34,15.20
2016,08,27,07,35,15.20
2016,08,27,07,36,15.10
2016,08,27,07,37,15.20
2016,08,27,07,38,15.20
2016,08,27,07,39,15.10
2016,08,27,07,40,15.10
2016,08,27,07,41,15.10
2016,08,27,07,42,15.10
2016,08,27,07,43,15.10
2016,08,27,07,44,15.10
2016,08,27,07,45,15.10
2016,08,27,07,46,15.10
2016,08,27,07,47,15.10
2016,08,27,07,48,15.20
2016,08,27,07,49,15.20
2016,08,27,07,50,15.20
2016,08,27,07,51,15.30
2016,08,27,07,52,15.30
2016,08,27,07,53,15.40
2016,08,27,07,54,15.40
2016,08,27,07,55,15.50
2016,08,27,07,56,15.60
2016,08,27,07,57,15.70
2016,08,27,07,58,15.80
2016,08,27,07,59,15.90
2016,08,27,08,00,16.00
2016,08,27,08,01,16.00
2016,08,27,08,02,16.10
2016,08,27,08,03,16.10
2016,08,27,08,04,16.20
2016,08,27,08,05,16.20
2016,08,27,08,06,16.20
2016,08,27,08,07,16.30
2016,08,27,08,08,16.30
2016,08,27,08,09,16.30
2016,08,27,08,10,16.40
2016,08,27,08,11,16.40
2016,08,27,08,12,16.40
2016,08,27,08,13,16.40
2016,08,27,08,14,16.50
2016,08,27,08,15,16.50
2016,08,27,08,16,16.50
2016,08,27,08,17,16.60
2016,08,27,08,18,16.60
2016,08,27,08,19,16.60
2016,08,27,08,20,16.60
2016,08,27,08,21,16.70
2016,08,27,08,22,16.70
2016,08,27,08,23,16.80
2016,08,27,08,24,16.80
2016,08,27,08,25,16.90
2016,08,27,08,26,16.90
2016,08,27,08,27,17.00
2016,08,27,08,28,17.00
2016,08,27,08,29,17.10
2016,08,27,08,30,17.20
2016,08,27,08,31,17.20
2016,08,27,08,32,17.30
2016,08,27,08,33,17.30
2016,08,27,08,34,17.30
2016,08,27,08,35,17.40
2016,08,27,08,36,17.40
2016,08,27,08,37,17.40
2016,08,27,08,38,17.40
2016,08,27,08,39,17.50
2016,08,27,08,40,17.60
2016,08,27,08,41,17.60
2016,08,27,08,42,17.70
2016,08,27,08,43,17.70
2016,08,27,08,44,17.70
2016,08,27,08,45,17.80
2016,08,27,08,46,17.80
2016,08,27,08,47,17.80
2016,08,27,08,48,17.80
2016,08,27,08,49,17.90
2016,08,27,08,50,18.00
2016,08,27,08,51,18.00
2016,08,27,08,52,18.10
2016,08,27,08,53,18.20
2016,08,27,08,54,18.30
2016,08,27,08,55,18.30
2016,08,27,08,56,18.40
2016,08,27,08,57,18.40
2016,08,27,08,58,18.40
2016,08,27,08,59,18.50
2016,08,27,09,00,18.50
2016,08,27,09,01,18.60
2016,08,27,09,02,18.70
2016,08,27,09,03,18.80
2016,08,27,09,04,18.80
2016,08,27,09,05,18.80
2016,08,27,09,06,18.80
2016,08,27,09,07,18.90
2016,08,27,09,08,19.30
2016,08,27,09,09,19.40
2016,08,27,09,10,19.40
2016,08,27,09,11,19.40
2016,08,27,09,12,19.40
2016,08,27,09,13,19.50
2016,08,27,09,14,19.50
2016,08,27,09,15,19.60
2016,08,27,09,16,19.70
2016,08,27,09,17,19.70
2016,08,27,09,18,19.70
2016,08,27,09,19,19.70
2016,08,27,09,20,19.70
2016,08,27,09,21,19.70
2016,08,27,09,22,19.60
2016,08,27,09,23,19.60
2016,08,27,09,24,19.50
2016,08,27,09,25,19.50
2016,08,27,09,26,19.40
2016,08,27,09,27,19.40
2016,08,27,09,28,19.40
2016,08,27,09,29,19.40
2016,08,27,09,30,19.50
2016,08,27,09,31,19.50
2016,08,27,09,32,19.60
2016,08,27,09,33,19.50
2016,08,27,09,34,19.50
2016,08,27,09,35,19.50
2016,08,27,09,36,19.50
2016,08,27,09,37,19.40
2016,08,27,09,38,19.40
2016,08,27,09,39,19.30
2016,08,27,09,40,19.30
2016,08,27,09,41,19.30
2016,08,27,09,42,19.20
2016,08,27,09,43,19.20
2016,08,27,09,44,19.20
2016,08,27,09,45,19.20
2016,08,27,09,46,19.20
2016,08,27,09,47,19.30
2016,08,27,09,48,19.30
2016,08,27,09,49,19.30
2016,08,27,09,50,19.30
2016,08,27,09,51,19.30
2016,08,27,09,52,19.30
2016,08,27,09,53,19.30
2016,08,27,09,54,19.40
2016,08,27,09,55,19.40
2016,08,27,09,56,19.40
2016,08,27,09,57,19.40
2016,08,27,09,58,19.30
2016,08,27,09,59,19.40
2016,08,27,10,00,19.30
2016,08,27,10,01,19.30
2016,08,27,10,02,19.40
2016,08,27,10,03,19.40
2016,08,27,10,04,19.40
2016,08,27,10,05,19.40
2016,08,27,10,06,19.40
2016,08,27,10,07,19.40
2016,08,27,10,08,19.40
2016,08,27,10,09,19.50
2016,08,27,10,10,19.50
2016,08,27,10,11,19.50
2016,08,27,10,12,19.50
2016,08,27,10,13,19.50
2016,08,27,10,14,19.50
2016,08,27,10,15,19.60
2016,08,27,10,16,19.60
2016,08,27,10,17,19.60
2016,08,27,10,18,19.60
2016,08,27,10,19,19.70
2016,08,27,10,20,19.80
2016,08,27,10,21,19.90
2016,08,27,10,22,20.00
2016,08,27,10,23,20.00
2016,08,27,10,24,20.10
2016,08,27,10,25,20.20
2016,08,27,10,26,20.20
2016,08,27,10,27,20.20
2016,08,27,10,28,20.30
2016,08,27,10,29,20.30
2016,08,27,10,30,20.40
2016,08,27,10,31,20.50
2016,08,27,10,32,20.60
2016,08,27,10,33,20.70
2016,08,27,10,34,20.80
2016,08,27,10,35,20.90
2016,08,27,10,36,20.90
2016,08,27,10,37,20.90
2016,08,27,10,38,21.00
2016,08,27,10,39,21.10
2016,08,27,10,40,21.20
2016,08,27,10,41,21.20
2016,08,27,10,42,21.30
2016,08,27,10,43,21.30
2016,08,27,10,44,21.30
2016,08,27,10,45,21.30
2016,08,27,10,46,21.30
2016,08,27,10,47,21.30
2016,08,27,10,48,21.30
2016,08,27,10,49,21.40
2016,08,27,10,50,21.50
2016,08,27,10,51,21.60
2016,08,27,10,52,21.70
2016,08,27,10,53,21.80
2016,08,27,10,54,21.90
2016,08,27,10,55,22.00
2016,08,27,10,56,22.10
2016,08,27,10,57,22.20
2016,08,27,10,58,22.20
2016,08,27,10,59,22.30
2016,08,27,11,00,22.40
2016,08,27,11,01,22.40
2016,08,27,11,02,22.40
2016,08,27,11,03,22.30
2016,08,27,11,04,22.30
2016,08,27,11,05,22.30
2016,08,27,11,06,22.30
2016,08,27,11,07,22.30
2016,08,27,11,08,22.20
2016,08,27,11,09,22.20
2016,08,27,11,10,22.20
2016,08,27,11,11,22.20
2016,08,27,11,12,22.30
2016,08,27,11,13,22.40
2016,08,27,11,14,22.60
2016,08,27,11,15,22.70
2016,08,27,11,16,22.70
2016,08,27,11,17,22.80
2016,08,27,11,18,22.80
2016,08,27,11,19,22.80
2016,08,27,11,20,22.70
2016,08,27,11,21,22.70
2016,08,27,11,22,22.70
2016,08,27,11,23,22.70
2016,08,27,11,24,22.70
2016,08,27,11,25,22.70
2016,08,27,11,26,22.70
2016,08,27,11,27,22.70
2016,08,27,11,28,22.80
2016,08,27,11,29,22.80
2016,08,27,11,30,22.90
2016,08,27,11,31,22.90
2016,08,27,11,32,22.90
2016,08,27,11,33,23.00
2016,08,27,11,34,23.10
2016,08,27,11,35,23.10
2016,08,27,11,36,23.20
2016,08,27,11,37,23.30
2016,08,27,11,38,23.40
2016,08,27,11,39,23.40
2016,08,27,11,40,23.50
2016,08,27,11,41,23.60
2016,08,27,11,42,23.60
2016,08,27,11,43,23.60
2016,08,27,11,44,23.60
2016,08,27,11,45,23.60
2016,08,27,11,46,23.60
2016,08,27,11,47,23.60
2016,08,27,11,48,23.60
2016,08,27,11,49,23.60
2016,08,27,11,50,23.60
2016,08,27,11,51,23.60
2016,08,27,11,52,23.60
2016,08,27,11,53,23.60
2016,08,27,11,54,23.70
2016,08,27,11,55,23.80
2016,08,27,11,56,23.90
2016,08,27,11,57,24.10
2016,08,27,11,58,24.20
2016,08,27,11,59,24.10
2016,08,27,12,00,24.00
2016,08,27,12,01,23.90
2016,08,27,12,02,23.80
2016,08,27,12,03,23.80
2016,08,27,12,04,23.80
2016,08,27,12,05,23.80
2016,08,27,12,06,23.70
2016,08,27,12,07,23.70
2016,08,27,12,08,23.80
2016,08,27,12,09,23.70
2016,08,27,12,10,23.70
2016,08,27,12,11,23.80
2016,08,27,12,12,23.80
2016,08,27,12,13,23.80
2016,08,27,12,14,23.90
2016,08,27,12,15,23.90
2016,08,27,12,16,23.90
2016,08,27,12,17,23.80
2016,08,27,12,18,23.70
2016,08,27,12,19,23.60
2016,08,27,12,20,23.60
2016,08,27,12,21,23.50
2016,08,27,12,22,23.50
2016,08,27,12,23,23.50
2016,08,27,12,24,23.40
2016,08,27,12,25,23.40
2016,08,27,12,26,23.50
2016,08,27,12,27,23.60
2016,08,27,12,28,23.60
2016,08,27,12,29,23.60
2016,08,27,12,30,23.60
2016,08,27,12,31,23.70
2016,08,27,12,32,23.70
2016,08,27,12,33,23.80
2016,08,27,12,34,23.80
2016,08,27,12,35,23.70
2016,08,27,12,36,23.60
2016,08,27,12,37,23.50
2016,08,27,12,38,23.40
2016,08,27,12,39,23.40
2016,08,27,12,40,23.40
2016,08,27,12,41,23.30
2016,08,27,12,42,23.30
2016,08,27,12,43,23.30
2016,08,27,12,44,23.30
2016,08,27,12,45,23.30
2016,08,27,12,46,23.40
2016,08,27,12,47,23.40
2016,08,27,12,48,23.40
2016,08,27,12,49,23.40
2016,08,27,12,50,23.40
2016,08,27,12,51,23.40
2016,08,27,12,52,23.40
2016,08,27,12,53,23.40
2016,08,27,12,54,23.40
2016,08,27,12,55,23.40
2016,08,27,12,56,23.40
2016,08,27,12,57,23.40
2016,08,27,12,58,23.30
2016,08,27,12,59,23.20
2016,08,27,13,00,23.20
2016,08,27,13,01,23.10
2016,08,27,13,02,23.20
2016,08,27,13,03,23.20
2016,08,27,13,04,23.20
2016,08,27,13,05,23.20
2016,08,27,13,06,23.10
2016,08,27,13,07,23.10
2016,08,27,13,08,23.10
2016,08,27,13,09,23.10
2016,08,27,13,10,22.90
2016,08,27,13,11,22.90
2016,08,27,13,12,22.90
2016,08,27,13,13,22.90
2016,08,27,13,14,22.90
2016,08,27,13,15,22.90
2016,08,27,13,16,22.90
2016,08,27,13,17,22.80
2016,08,27,13,18,22.80
2016,08,27,13,19,22.80
2016,08,27,13,20,22.90
2016,08,27,13,21,23.00
2016,08,27,13,22,23.10
2016,08,27,13,23,23.20
2016,08,27,13,24,23.20
2016,08,27,13,25,23.30
2016,08,27,13,26,23.40
2016,08,27,13,27,23.30
2016,08,27,13,28,23.20
2016,08,27,13,29,23.10
2016,08,27,13,30,23.00
2016,08,27,13,31,22.90
2016,08,27,13,32,22.80
2016,08,27,13,33,22.80
2016,08,27,13,34,22.80
2016,08,27,13,35,22.80
2016,08,27,13,36,22.80
2016,08,27,13,37,22.80
2016,08,27,13,38,22.80
2016,08,27,13,39,22.70
2016,08,27,13,40,22.70
2016,08,27,13,41,22.70
2016,08,27,13,42,22.80
2016,08,27,13,43,22.80
2016,08,27,13,44,22.80
2016,08,27,13,45,22.90
2016,08,27,13,46,23.00
2016,08,27,13,47,23.10
2016,08,27,13,48,23.20
2016,08,27,13,49,23.10
2016,08,27,13,50,23.00
2016,08,27,13,51,23.00
2016,08,27,13,52,23.00
2016,08,27,13,53,23.10
2016,08,27,13,54,23.20
2016,08,27,13,55,23.10
2016,08,27,13,56,23.00
2016,08,27,13,57,22.90
2016,08,27,13,58,22.80
2016,08,27,13,59,22.60
2016,08,27,14,00,22.50
2016,08,27,14,01,22.50
2016,08,27,14,02,22.40
2016,08,27,14,03,22.30
2016,08,27,14,04,22.30
2016,08,27,14,05,22.30
2016,08,27,14,06,22.30
2016,08,27,14,07,22.30
2016,08,27,14,08,22.20
2016,08,27,14,09,22.20
2016,08,27,14,10,22.20
2016,08,27,14,11,22.20
2016,08,27,14,12,22.20
2016,08,27,14,13,22.10
2016,08,27,14,14,22.00
2016,08,27,14,15,22.00
2016,08,27,14,16,22.00
2016,08,27,14,17,22.10
2016,08,27,14,18,22.10
2016,08,27,14,19,22.10
2016,08,27,14,20,22.00
2016,08,27,14,21,22.00
2016,08,27,14,22,22.00
2016,08,27,14,23,22.00
2016,08,27,14,24,22.00
2016,08,27,14,25,22.00
2016,08,27,14,26,22.10
2016,08,27,14,27,22.20
2016,08,27,14,28,22.20
2016,08,27,14,29,22.20
2016,08,27,14,30,22.10
2016,08,27,14,31,22.10
2016,08,27,14,32,22.20
2016,08,27,14,33,22.20
2016,08,27,14,34,22.20
2016,08,27,14,35,22.20
2016,08,27,14,36,22.30
2016,08,27,14,37,22.30
2016,08,27,14,38,22.30
2016,08,27,14,39,22.30
2016,08,27,14,40,22.20
2016,08,27,14,41,22.20
2016,08,27,14,42,22.30
2016,08,27,14,43,22.40
2016,08,27,14,44,22.40
2016,08,27,14,45,22.50
2016,08,27,14,46,22.50
2016,08,27,14,47,22.60
2016,08,27,14,48,22.60
2016,08,27,14,49,22.50
2016,08,27,14,50,22.50
2016,08,27,14,51,22.40
2016,08,27,14,52,22.40
2016,08,27,14,53,22.40
2016,08,27,14,54,22.40
2016,08,27,14,55,22.50
2016,08,27,14,56,22.60
2016,08,27,14,57,22.50
2016,08,27,14,58,22.50
2016,08,27,14,59,22.60
2016,08,27,15,00,22.60
2016,08,27,15,01,22.60
2016,08,27,15,02,22.60
2016,08,27,15,03,22.60
2016,08,27,15,04,22.60
2016,08,27,15,05,22.70
2016,08,27,15,06,22.70
2016,08,27,15,07,22.70
2016,08,27,15,08,22.70
2016,08,27,15,09,22.80
2016,08,27,15,10,22.80
2016,08,27,15,11,22.70
2016,08,27,15,12,22.80
2016,08,27,15,13,22.80
2016,08,27,15,14,22.90
2016,08,27,15,15,23.00
2016,08,27,15,16,23.10
2016,08,27,15,17,23.00
2016,08,27,15,18,23.00
2016,08,27,15,19,23.00
2016,08,27,15,20,22.90
2016,08,27,15,21,22.80
2016,08,27,15,22,22.70
2016,08,27,15,23,22.60
2016,08,27,15,24,22.60
2016,08,27,15,25,22.60
2016,08,27,15,26,22.50
2016,08,27,15,27,22.50
2016,08,27,15,28,22.50
2016,08,27,15,29,22.50
2016,08,27,15,30,22.30
2016,08,27,15,31,22.10
2016,08,27,15,32,22.00
2016,08,27,15,33,21.90
2016,08,27,15,34,21.90
2016,08,27,15,35,21.90
2016,08,27,15,36,21.90
2016,08,27,15,37,21.90
2016,08,27,15,38,21.90
2016,08,27,15,39,21.80
2016,08,27,15,40,21.80
2016,08,27,15,41,21.80
2016,08,27,15,42,21.70
2016,08,27,15,43,21.60
2016,08,27,15,44,21.60
2016,08,27,15,45,21.60
2016,08,27,15,46,21.60
2016,08,27,15,47,21.70
2016,08,27,15,48,21.70
2016,08,27,15,49,21.70
2016,08,27,15,50,21.70
2016,08,27,15,51,21.70
2016,08,27,15,52,21.70
2016,08,27,15,53,21.70
2016,08,27,15,54,21.70
2016,08,27,15,55,21.30
2016,08,27,15,56,21.20
2016,08,27,15,57,21.20
2016,08,27,15,58,21.20
2016,08,27,15,59,21.10
2016,08,27,16,00,21.10
2016,08,27,16,01,21.10
2016,08,27,16,02,21.10
2016,08,27,16,03,21.20
2016,08,27,16,04,21.10
2016,08,27,16,05,21.10
2016,08,27,16,06,21.20
2016,08,27,16,07,21.10
2016,08,27,16,08,21.10
2016,08,27,16,09,21.10
2016,08,27,16,10,21.10
2016,08,27,16,11,21.10
2016,08,27,16,12,21.20
2016,08,27,16,13,21.30
2016,08,27,16,14,21.20
2016,08,27,16,15,21.20
2016,08,27,16,16,21.20
2016,08,27,16,17,21.10
2016,08,27,16,18,21.10
2016,08,27,16,19,21.10
2016,08,27,16,20,21.10
2016,08,27,16,21,21.20
2016,08,27,16,22,21.30
2016,08,27,16,23,21.30
2016,08,27,16,24,21.20
2016,08,27,16,25,21.20
2016,08,27,16,26,21.20
2016,08,27,16,27,21.30
2016,08,27,16,28,21.30
2016,08,27,16,29,21.30
2016,08,27,16,30,21.20
2016,08,27,16,31,21.20
2016,08,27,16,32,21.10
2016,08,27,16,33,21.10
2016,08,27,16,34,21.10
2016,08,27,16,35,21.10
2016,08,27,16,36,21.20
2016,08,27,16,37,21.20
2016,08,27,16,38,21.20
2016,08,27,16,39,21.20
2016,08,27,16,40,21.10
2016,08,27,16,41,21.10
2016,08,27,16,42,21.00
2016,08,27,16,43,20.80
2016,08,27,16,44,20.70
2016,08,27,16,45,20.60
2016,08,27,16,46,20.60
2016,08,27,16,47,20.70
2016,08,27,16,48,20.60
2016,08,27,16,49,20.60
2016,08,27,16,50,20.60
2016,08,27,16,51,20.60
2016,08,27,16,52,20.50
2016,08,27,16,53,20.50
2016,08,27,16,54,20.40
2016,08,27,16,55,20.30
2016,08,27,16,56,20.30
2016,08,27,16,57,20.20
2016,08,27,16,58,20.10
2016,08,27,16,59,20.10
2016,08,27,17,00,20.10
2016,08,27,17,01,20.20
2016,08,27,17,02,20.20
2016,08,27,17,03,20.30
2016,08,27,17,04,20.40
2016,08,27,17,05,20.40
2016,08,27,17,06,20.40
2016,08,27,17,07,20.40
2016,08,27,17,08,20.40
2016,08,27,17,09,20.40
2016,08,27,17,10,20.30
2016,08,27,17,11,20.20
2016,08,27,17,12,20.20
2016,08,27,17,13,20.10
2016,08,27,17,14,19.90
2016,08,27,17,15,19.90
2016,08,27,17,16,19.80
2016,08,27,17,17,19.70
2016,08,27,17,18,19.60
2016,08,27,17,19,19.60
2016,08,27,17,20,19.50
2016,08,27,17,21,19.50
2016,08,27,17,22,19.50
2016,08,27,17,23,19.40
2016,08,27,17,24,19.40
2016,08,27,17,25,19.30
2016,08,27,17,26,19.30
2016,08,27,17,27,19.30
2016,08,27,17,28,19.20
2016,08,27,17,29,19.20
2016,08,27,17,30,19.20
2016,08,27,17,31,19.20
2016,08,27,17,32,19.20
2016,08,27,17,33,19.20
2016,08,27,17,34,19.10